Back to catalog

STARLINK-36235

AliveCommunicationsSSO
NORAD 68400·PAYLOAD·🇺🇸 United States

Launched Mar 26, 2026 from Vandenberg Space Force Base

Loading…

Next Passes (next 24 hours)

TLE

FreshSource: CelesTrak SupGP

Epoch: Sep 15, 2026, 04:21 UTC

1 68400C 26063W   26258.18173611  .00018606  00000+0  57772-3 0  2585
2 68400  97.2854  39.1412 0001630  72.5122 335.1552 15.33421438    13

Track STARLINK-36235 in real time with AllMySat

Download on the App Store